Starlink 11514

operational
NORAD ID: 62514 Int'l Des: 2025-004 Owner: SPXS Country: US Constellation: starlink
LEOCIRCULAR

Über Starlink 11514

Beschreibung wird geladen...

Live-Position

3D-Globus wird geladen...

Nächste Überflüge

Höhenverlauf

Altitude vs Time

uPlot chart will show altitude changes over time

Zweizeiliger Elementsatz

1 62514U 25004D 25261.72343401 .00192021 00000-0 14565-2 0 9997
2 62514 43.0000 27.2030 0002340 254.4548 105.6061 15.70987516 40161
Epoch: 18. Sept. 2025 • Age: 16 hours

Aktueller Status

Höhe 359.8 km
Geschwindigkeit 7.70 km/s
Subsatellitenpunkt 42.45°N, 8.1°W
Startdatum 8. Jan. 2025
Alter 0.6 years
Typ internet

Technische Details

Klassifizierung Payload
Masse 960.00 kg
Trockenmasse 910.00 kg
Gesamtmasse 960.00 kg
Länge 0.30 m
Durchmesser 4.10 m
Spannweite 29.00 m
Form Box + pan
Hersteller SPXS
Bus-Typ Starlink V2MD
Phasenstatus In Orbit
Besitzer/Staat SPXS/US

Große Konstellationen

Loading constellations...